Terug naar catalogus

STARLINK-2399

ActiefCommunicatieVLEO
NORAD 47816·PAYLOAD·🇺🇸 United States

Gelanceerd Mar 11, 2021 vanaf Cape Canaveral Space Force Station

Loading…

Volgende Passages (komende 24 uur)

TLE

VersSource: CelesTrak SupGP

Epoch: Sep 15, 2026, 00:29 UTC

1 47816C 21018AF  26258.02062500  .00053782  00000+0  17294-2 0  2583
2 47816  53.1565  97.0853 0001192  81.9734 123.8444 15.31677313    14

Volg STARLINK-2399 in realtime met AllMySat

Download on the App Store